Albion, NE

10:27 AM CDT on August 20, 2019 (GMT -0500)
Albion Municipal

Weather History for KBVN - July, 2019

Change the Weather History Date:

Tuesday, July 16, 2019

  Actual Average (WUND) Record (WUND)
Temperature  
Mean Temperature 76 °F -  
Max Temperature 86 °F - - (-1)
Min Temperature 68 °F - - (-1)
Cooling Degree Days 12    
Growing Degree Days 26 (Base 50)    
Moisture  
Dew Point 70 °F    
Average Humidity 78    
Maximum Humidity 96    
Minimum Humidity 61    
Precipitation  
Precipitation 0.21 in - - ()
Sea Level Pressure  
Sea Level Pressure 29.92 in    
Wind  
Wind Speed 4 mph (SE)    
Max Wind Speed 14 mph    
Max Gust Speed 26 mph    
Visibility 10 miles    
Events Rain , Thunderstorm    
Averages and records for this station are not official NWS values.
T = Trace of Precipitation, MM = Missing Value Source: NWS Daily Summary

Daily Weather History Graph

Daily Weather History Graph

Search for Another Location

Airport or City:

Astronomy

Jul. 16, 2019 Rise Set
Actual Time 6:11 AM CDT 9:04 PM CDT
Civil Twilight 5:38 AM CDT 9:37 PM CDT
Nautical Twilight 4:56 AM CDT 10:19 PM CDT
Astronomical Twilight 4:08 AM CDT 11:07 PM CDT
Moon 9:12 PM CDT (7/16) 5:50 AM CDT (7/16)
Length of Visible Light 15h 59m
Length of Day
14h 53m
Full, 100% of the Moon is Illuminated
Jul 16
Full
Jul 16
Full
Jul 24
Last Quarter
Jul 31
New
Aug 7
First Quarter

Hourly Weather History & Observations

Time (CDT) Temp. Heat Index Dew Point Humidity Pressure Visibility Wind Dir Wind Speed Gust Speed Precip Events Conditions
12:15 AM 71.1 °F - 68.2 °F 91% 29.91 in 10.0 mi Calm Calm - N/A   Clear
12:35 AM 71.1 °F - 68.4 °F 91% 29.91 in 10.0 mi Calm Calm - N/A   Clear
12:55 AM 70.0 °F - 67.5 °F 92% 29.91 in 10.0 mi Calm Calm - N/A   Clear
1:15 AM 71.1 °F - 67.8 °F 89% 29.91 in 10.0 mi East 3.5 mph - N/A   Clear
1:35 AM 69.8 °F - 67.6 °F 93% 29.92 in 10.0 mi ENE 4.6 mph - N/A   Clear
1:55 AM 70.2 °F - 67.6 °F 92% 29.93 in 10.0 mi Calm Calm - N/A   Clear
2:15 AM 68.9 °F - 67.5 °F 95% 29.93 in 10.0 mi Calm Calm - N/A   Clear
2:35 AM 69.1 °F - 68.0 °F 96% 29.94 in 10.0 mi NW 6.9 mph - N/A   Scattered Clouds
2:55 AM 71.6 °F - 66.7 °F 85% 29.97 in 10.0 mi NW 13.8 mph 20.7 mph N/A Thunderstorm Scattered Clouds
3:15 AM 70.3 °F - 67.1 °F 89% 29.97 in 10.0 mi NW 13.8 mph 26.5 mph N/A   Clear
3:35 AM 70.7 °F - 67.1 °F 88% 29.96 in 10.0 mi NNW 12.7 mph 20.7 mph N/A   Scattered Clouds
3:55 AM 71.1 °F - 66.4 °F 85% 29.97 in 10.0 mi NW 9.2 mph - N/A Rain Light Rain
4:15 AM 70.3 °F - 66.0 °F 86% 29.95 in 10.0 mi North 8.1 mph - N/A Rain Light Rain
4:35 AM 69.3 °F - 65.5 °F 88% 29.96 in 10.0 mi NNW 12.7 mph 19.6 mph 0.04 in Rain , Thunderstorm Thunderstorms and Rain
4:55 AM 68.2 °F - 66.2 °F 93% 29.97 in 10.0 mi NW 11.5 mph - 0.09 in Rain , Thunderstorm Rain
5:15 AM 68.9 °F - 65.5 °F 89% 29.97 in 10.0 mi WNW 3.5 mph - 0.03 in Rain Rain
5:35 AM 69.8 °F - 65.7 °F 87% 29.99 in 10.0 mi West 10.4 mph 16.1 mph 0.04 in Rain Light Rain
5:55 AM 69.3 °F - 65.1 °F 87% 29.96 in 10.0 mi SSW 3.5 mph - 0.07 in Rain Rain
6:15 AM 68.0 °F - 65.8 °F 93% 29.93 in 7.0 mi SSE 10.4 mph - 0.03 in Rain Rain
6:35 AM 68.2 °F - 65.3 °F 90% 29.92 in 10.0 mi South 3.5 mph - 0.05 in Rain Light Rain
6:55 AM 68.5 °F - 65.5 °F 90% 29.91 in 10.0 mi Calm Calm - 0.05 in Rain Light Rain
7:15 AM 69.1 °F - 65.8 °F 89% 29.90 in 10.0 mi Calm Calm - N/A   Scattered Clouds
7:35 AM 69.1 °F - 66.4 °F 91% 29.90 in 10.0 mi Calm Calm - N/A   Clear
7:55 AM 70.0 °F - 66.0 °F 87% 29.90 in 10.0 mi WNW 3.5 mph - N/A   Clear
8:15 AM 70.5 °F - 67.1 °F 89% 29.91 in 10.0 mi West 3.5 mph - N/A   Clear
8:35 AM 71.1 °F - 66.2 °F 85% 29.91 in 10.0 mi WNW 3.5 mph - N/A   Clear
8:55 AM 74.5 °F - 67.3 °F 78% 29.91 in 10.0 mi NW 3.5 mph - N/A   Clear
9:15 AM 75.7 °F - 66.9 °F 74% 29.90 in 10.0 mi Calm Calm - N/A   Clear
9:35 AM 77.4 °F - 67.5 °F 71% 29.90 in 10.0 mi SSW 4.6 mph - N/A   Clear
9:55 AM 78.4 °F - 68.0 °F 70% 29.92 in 10.0 mi WNW 4.6 mph - N/A   Clear
10:15 AM 79.2 °F - 67.1 °F 66% 29.93 in 10.0 mi WSW 5.8 mph - N/A   Clear
10:35 AM 79.9 °F - 68.4 °F 68% 29.94 in 10.0 mi NW 5.8 mph - N/A   Clear
10:55 AM 80.6 °F 83.6 °F 69.1 °F 68% 29.94 in 10.0 mi North 5.8 mph - N/A   Clear
11:15 AM 80.2 °F 83.2 °F 69.1 °F 69% 29.94 in 10.0 mi North 5.8 mph - N/A   Clear
11:35 AM 80.8 °F 84.1 °F 69.8 °F 69% 29.94 in 10.0 mi East 6.9 mph - N/A   Clear
11:55 AM 80.6 °F 84.4 °F 71.2 °F 73% 29.95 in 10.0 mi NE 6.9 mph - N/A   Scattered Clouds
12:15 PM 81.0 °F 84.7 °F 70.7 °F 71% 29.94 in 10.0 mi ENE 6.9 mph - N/A   Clear
12:35 PM 81.3 °F 85.2 °F 70.7 °F 70% 29.94 in 10.0 mi East 3.5 mph - N/A   Scattered Clouds
12:55 PM 81.7 °F 85.4 °F 70.0 °F 68% 29.93 in 10.0 mi SE 3.5 mph - N/A   Scattered Clouds
1:15 PM 83.1 °F 87.8 °F 71.1 °F 67% 29.94 in 10.0 mi East 3.5 mph - N/A   Scattered Clouds
1:35 PM 82.2 °F 86.4 °F 70.9 °F 68% 29.94 in 10.0 mi Calm Calm - N/A   Mostly Cloudy
1:55 PM 82.9 °F 87.2 °F 70.3 °F 66% 29.94 in 10.0 mi East 4.6 mph - N/A   Scattered Clouds
2:15 PM 83.7 °F 88.3 °F 70.9 °F 65% 29.94 in 10.0 mi SSW 3.5 mph - N/A   Scattered Clouds
2:35 PM 84.0 °F 88.4 °F 70.0 °F 63% 29.93 in 10.0 mi ESE 3.5 mph - N/A   Scattered Clouds
2:55 PM 84.6 °F 89.7 °F 71.2 °F 64% 29.93 in 10.0 mi Calm Calm - N/A   Scattered Clouds
3:35 PM 84.7 °F 89.4 °F 70.5 °F 62% 29.92 in 10.0 mi SSE 4.6 mph - N/A   Clear
3:55 PM 85.5 °F 91.1 °F 71.8 °F 63% 29.92 in 10.0 mi SSW 5.8 mph - N/A   Clear
4:15 PM 85.1 °F 89.8 °F 70.2 °F 61% 29.92 in 10.0 mi Calm Calm - N/A   Clear
4:35 PM 85.3 °F 90.4 °F 71.1 °F 62% 29.91 in 10.0 mi South 3.5 mph - N/A   Clear
4:55 PM 85.6 °F 91.5 °F 71.8 °F 63% 29.91 in 10.0 mi ESE 3.5 mph - N/A   Clear
5:15 PM 85.8 °F 91.1 °F 71.1 °F 61% 29.90 in 10.0 mi SSE 4.6 mph - N/A   Clear
5:35 PM 85.6 °F 90.8 °F 70.7 °F 61% 29.90 in 10.0 mi Calm Calm - N/A   Clear
5:55 PM 85.8 °F 91.8 °F 71.8 °F 63% 29.90 in 10.0 mi Calm Calm - N/A   Clear
6:15 PM 85.8 °F 91.8 °F 72.0 °F 63% 29.89 in 10.0 mi South 3.5 mph - N/A   Clear
6:35 PM 85.6 °F 92.2 °F 72.7 °F 65% 29.89 in 10.0 mi SE 3.5 mph - N/A   Clear
6:55 PM 85.5 °F 91.8 °F 72.3 °F 65% 29.89 in 10.0 mi SSE 4.6 mph - N/A   Clear
7:15 PM 85.3 °F 91.8 °F 72.7 °F 66% 29.89 in 10.0 mi SSE 4.6 mph - N/A   Clear
7:35 PM 84.9 °F 91.4 °F 72.9 °F 67% 29.89 in 10.0 mi SE 3.5 mph - N/A   Clear
7:55 PM 83.7 °F 91.0 °F 74.5 °F 74% 29.89 in 10.0 mi SE 5.8 mph - N/A   Clear
8:15 PM 82.6 °F 88.8 °F 73.8 °F 75% 29.88 in 10.0 mi SE 4.6 mph - N/A   Clear
8:35 PM 81.7 °F 87.3 °F 73.9 °F 77% 29.88 in 10.0 mi ESE 4.6 mph - N/A   Light Drizzle
8:55 PM 80.6 °F 85.5 °F 73.8 °F 80% 29.89 in 10.0 mi ESE 3.5 mph - N/A   Clear
9:35 PM 79.2 °F - 74.3 °F 85% 29.90 in 10.0 mi ESE 5.8 mph - N/A   Clear
9:55 PM 78.3 °F - 73.9 °F 87% 29.91 in 10.0 mi East 3.5 mph - N/A   Clear
10:15 PM 77.4 °F - 73.9 °F 89% 29.91 in 10.0 mi ESE 3.5 mph - N/A   Clear
10:35 PM 76.8 °F - 73.9 °F 91% 29.90 in 10.0 mi SE 5.8 mph - N/A   Clear
10:55 PM 76.1 °F - 73.8 °F 92% 29.89 in 10.0 mi ESE 6.9 mph - N/A   Clear
11:15 PM 76.1 °F - 73.9 °F 93% 29.89 in 10.0 mi SE 5.8 mph - N/A   Clear
11:35 PM 76.3 °F - 74.3 °F 94% 29.89 in 10.0 mi SE 4.6 mph - N/A   Clear
11:55 PM 75.9 °F - 74.1 °F 94% 29.89 in 10.0 mi ESE 5.8 mph - N/A   Clear